{"data":{"norad_id":68692,"intl_designator":"2026-080B","name":"JILIN GAOFEN OBJECT B","alt_names":[],"object_type":"PAYLOAD","status":"ACTIVE","operator":null,"country":"PRC","launch_date":"2026-04-14","launch_site_code":"JSC","launch_vehicle":null,"mission":null,"orbit_class":"UNKNOWN","rcs_meters":null,"size_class":null,"mass_kg":null,"dimensions":null,"purposes":[],"wikipedia_slug":null,"has_3d_model":false,"image_url":null,"decayed_at":null,"tle_current":{"epoch":"2026-09-20T03:54:24.810624Z","epoch_age_seconds":92356,"freshness":"FRESH","line1":"1 68692U 26080B   26263.16278716  .00003632  00000+0  23431-3 0  9993","line2":"2 68692  97.6522 338.4783 0018150  88.1208 272.2099 15.08795141 23986","mean_motion":15.08795141,"eccentricity":0.001815,"inclination_deg":97.6522,"raan_deg":338.4783,"arg_perigee_deg":88.1208,"mean_anomaly_deg":272.2099,"bstar":0.00023431,"rev_number":2398,"period_min":95.440392195696,"perigee_km":527.32430660051,"apogee_km":552.43671015592,"semimajor_km":6918.0175083782,"source":"CELESTRAK","updated_at":"2026-09-20T09:00:24.408437Z"}}}